Theta_e
304 301 299 302 305 307 308 310 312 319 324 319 320 319 321 326 330 326 327 327 327 329 332 330 331 334 332 334 337 339 340 341 343 343 343 343 343 345 347 349 351 348 348 346
300 298 303 308 309 308 309 312 314 320 323 321 317 317 323 326 325 329 326 327 327 328 327 328 327 331 332 335 338 339 341 341 343 344 344 345 345 346 349 351 353 349 346 347
298 302 308 306 305 304 302 307 314 315 321 320 319 314 316 324 327 327 329 328 329 328 327 326 325 330 333 334 337 338 340 342 344 345 345 348 349 350 348 348 347 351 350 349
300 304 305 303 302 302 294 310 319 318 312 301 314 301 309 316 319 322 325 327 329 329 330 329 326 328 333 334 338 338 339 342 345 346 345 345 345 344 347 346 348 348 350 348
299 301 301 300 302 304 302 316 318 317 308 304 306 302 306 313 313 317 322 325 328 331 330 329 329 328 335 337 337 339 339 344 344 347 347 347 344 346 347 344 345 343 343 345
300 303 302 301 305 305 318 311 306 307 302 296 302 301 302 309 312 316 320 323 327 331 331 330 331 331 333 338 338 339 340 342 346 348 348 347 346 346 341 340 340 342 339 342
297 299 300 303 299 301 303 297 290 291 294 295 302 300 303 312 316 319 320 323 328 332 332 331 329 329 331 335 337 339 339 342 347 348 349 349 349 346 341 339 338 339 338 337
291 291 297 302 300 297 297 296 291 288 290 296 303 299 306 316 319 323 324 324 331 332 332 332 331 330 332 334 337 339 339 340 347 349 349 351 349 345 341 341 341 338 337 340
289 291 299 302 301 302 294 295 298 295 297 296 300 306 312 316 317 320 322 324 327 328 330 331 333 332 333 334 336 339 340 341 347 351 352 351 347 342 344 343 340 340 341 344
295 290 297 301 300 300 298 299 294 292 292 291 297 301 303 309 313 317 319 320 319 322 324 328 331 332 334 335 338 340 341 343 350 353 353 350 345 346 345 341 342 342 343 340
292 292 295 296 295 296 295 294 294 294 293 292 292 298 309 311 314 316 317 319 318 320 323 325 328 330 334 335 338 339 344 350 352 353 351 348 345 344 343 343 343 342 340 340
297 291 290 295 297 299 296 296 293 291 290 294 296 298 310 314 315 318 319 319 320 322 324 326 329 329 331 334 336 341 349 351 352 352 349 348 346 344 344 343 341 341 340 339
296 290 288 291 294 296 293 295 295 292 292 294 295 298 311 314 315 317 319 319 320 322 326 327 328 328 330 333 342 346 349 351 352 350 349 347 345 344 342 341 340 339 338 337
304 288 291 290 291 294 293 296 295 294 290 291 295 298 308 314 315 317 317 319 321 322 327 330 327 329 335 341 345 347 349 351 350 349 348 346 344 344 342 341 339 338 337 336
298 291 292 291 296 296 297 298 296 293 293 292 295 302 307 313 316 317 318 319 322 322 327 330 333 335 340 343 346 348 349 350 350 348 347 345 344 344 341 339 337 335 333 331
302 296 293 293 300 299 303 309 307 303 311 298 301 301 311 314 314 314 316 323 325 324 328 332 339 340 342 344 347 348 349 349 350 347 345 344 344 341 339 336 334 332 331 324
301 298 295 293 298 297 293 306 308 308 311 309 302 306 315 314 315 315 313 318 325 328 330 334 341 342 343 345 348 347 348 349 348 346 344 342 342 339 337 335 333 331 329 320
301 299 295 293 293 289 297 310 313 312 312 313 313 314 316 316 316 319 321 317 325 330 332 337 344 345 345 348 349 349 349 347 346 343 341 341 340 338 336 334 331 328 324 322
302 299 295 293 290 294 304 308 307 307 308 316 314 317 318 318 320 322 327 325 324 330 333 340 347 348 349 349 349 348 347 345 343 341 339 339 338 336 335 331 329 324 321 318
304 300 298 293 291 291 301 312 314 314 304 317 317 316 317 317 316 318 325 328 330 332 334 341 347 349 350 349 349 347 344 343 341 340 339 339 337 335 333 331 326 322 320 317
299 298 298 296 294 299 309 313 315 302 306 317 319 318 317 311 317 322 326 333 333 333 333 342 348 349 350 350 348 344 342 340 340 340 338 338 337 335 331 325 323 320 319 318
298 296 298 297 295 294 312 311 305 309 314 319 319 320 319 319 321 322 328 338 338 337 335 342 344 348 349 348 345 343 340 341 341 338 336 335 334 332 327 323 320 319 316 316
299 302 300 301 300 308 313 310 314 316 315 318 318 322 323 323 321 322 336 343 343 338 340 341 343 343 344 345 345 338 339 341 339 336 334 331 328 327 325 322 319 318 315 314
305 307 302 303 302 307 312 316 317 317 318 320 322 323 325 322 325 321 339 341 341 341 340 339 339 338 340 341 340 341 342 338 335 332 331 330 328 326 323 322 321 318 317 315
304 306 302 302 306 308 310 313 316 317 319 322 322 323 321 321 321 327 341 341 341 340 338 337 337 337 336 335 334 339 336 333 332 333 331 329 324 322 321 321 319 320 319 310
307 304 301 300 306 305 307 312 319 315 317 321 320 319 320 321 321 341 337 338 338 337 333 334 334 338 337 327 328 334 335 336 334 332 329 325 323 323 319 316 306 304 306 303
Wind_Speed
4 5 8 9 5 3 5 4 1 2 5 2 6 10 14 12 6 10 15 12 12 13 13 8 12 15 13 11 11 13 11 9 7 3 4 3 4 3 3 4 8 6 5 6
6 7 7 5 5 5 7 7 2 3 6 2 8 11 13 6 5 4 9 13 12 10 7 8 10 12 15 16 15 12 14 10 10 7 5 3 3 3 2 1 4 4 5 6
7 8 4 3 8 4 4 9 9 8 5 5 4 9 6 5 6 4 6 6 9 12 10 8 10 14 14 15 15 15 16 12 11 9 4 2 2 1 0 2 2 1 4 5
6 5 4 4 4 5 5 7 15 15 10 3 2 6 6 5 4 6 9 9 9 13 8 6 8 10 15 16 15 16 13 12 10 8 7 7 5 4 4 3 1 2 3 4
9 2 3 4 5 5 8 8 12 12 2 5 3 2 10 4 8 10 15 11 11 14 13 13 12 13 14 13 14 14 10 10 9 11 10 8 4 3 1 1 4 3 2 3
8 2 3 7 4 6 6 7 8 4 4 2 4 3 6 5 8 8 6 14 13 14 13 12 12 8 10 8 11 11 11 12 9 11 9 10 8 6 4 4 4 3 2 1
7 7 4 4 5 4 5 6 1 2 4 7 5 1 10 10 7 8 6 8 9 7 13 10 12 12 9 12 12 11 10 13 11 11 9 7 7 7 6 6 4 4 3 1
6 9 3 5 8 5 7 10 7 6 4 5 1 6 9 8 7 6 8 7 6 7 5 12 17 16 14 13 14 14 12 14 8 8 7 7 8 5 5 5 4 4 3 3
6 7 5 5 4 8 3 5 7 10 4 3 3 8 10 8 7 5 4 6 8 10 9 10 8 13 13 12 12 14 12 12 8 9 9 8 7 6 6 5 4 4 4 4
7 3 6 6 2 1 7 4 4 3 5 4 4 6 8 8 8 9 9 10 9 8 8 10 10 11 11 12 10 9 8 11 10 11 10 9 8 7 6 6 6 6 5 5
6 6 8 2 4 7 3 1 7 6 5 8 2 8 8 10 9 9 8 6 3 6 4 7 11 10 11 7 9 8 10 10 11 11 10 11 8 7 7 6 6 6 6 6
11 6 6 13 5 3 3 2 5 7 6 2 4 8 4 9 8 8 10 6 4 5 8 4 8 9 10 12 11 11 11 12 12 11 11 11 9 9 8 7 6 6 7 6
6 2 3 11 8 5 2 3 4 4 4 6 7 8 3 6 7 8 10 9 6 6 6 2 7 9 11 10 11 12 12 13 12 13 13 11 10 9 8 8 7 6 7 6
7 4 8 10 6 3 1 2 2 5 3 3 7 7 6 8 9 9 8 9 9 9 5 3 3 7 8 11 12 13 12 13 14 14 13 13 11 10 9 8 7 7 7 7
6 3 1 0 5 4 4 6 4 4 4 5 7 10 10 13 14 14 10 2 7 8 9 7 5 7 8 9 10 11 12 13 14 14 13 12 10 9 8 8 6 7 7 7
6 2 3 2 4 5 6 10 7 7 6 4 6 7 6 14 9 6 7 6 7 8 9 10 9 10 11 12 12 11 12 12 14 14 13 10 10 10 9 8 8 8 7 7
4 3 4 3 6 5 7 7 3 4 2 2 5 7 17 20 13 13 7 6 8 9 10 11 11 11 11 12 13 14 13 11 11 11 10 10 11 12 11 10 9 8 8 7
5 5 2 3 5 2 6 4 1 6 5 4 3 11 15 20 4 6 7 8 8 9 10 10 9 9 9 10 11 12 13 13 12 12 12 11 13 13 12 11 10 7 6 8
2 5 3 2 3 1 2 4 4 4 1 4 8 15 18 15 7 6 11 6 10 6 5 12 12 12 12 13 12 12 12 11 12 13 13 12 13 13 13 10 9 7 7 5
5 7 6 2 3 5 4 6 6 5 2 2 3 8 10 13 10 5 10 9 9 4 6 7 8 8 12 12 14 15 12 12 11 9 10 11 11 12 10 8 8 4 5 5
4 5 4 2 2 6 6 5 4 2 7 5 2 5 5 5 3 11 14 9 5 1 5 8 12 12 11 12 13 12 11 10 8 10 8 10 10 9 7 6 3 4 5 6
3 4 3 3 2 5 7 1 8 8 2 4 4 4 3 5 11 9 6 12 13 14 7 6 7 8 11 14 15 15 15 15 16 15 15 16 11 10 9 10 4 5 6 6
3 6 4 8 7 3 3 4 4 4 5 5 4 7 5 6 3 12 8 10 9 8 5 3 6 8 8 12 13 12 12 13 14 14 13 12 13 12 12 11 10 3 3 4
3 3 2 4 4 5 7 7 6 4 8 7 11 7 7 7 4 6 2 3 5 3 1 1 8 6 7 5 5 14 15 15 18 18 16 11 10 9 5 7 7 6 5 4
4 2 3 6 10 8 9 10 12 8 11 10 10 11 9 5 5 7 5 4 3 1 1 4 10 8 13 17 19 16 3 16 16 14 11 9 6 8 9 6 7 6 4 4
6 8 6 8 8 4 9 5 4 11 15 13 8 12 8 2 5 5 2 3 3 1 2 8 8 10 12 15 16 21 12 13 16 14 9 7 8 8 6 7 5 10 6 6
Wind_Direction
2 57 251 256 194 195 230 175 306 102 214 151 192 224 238 182 219 220 206 197 207 212 214 186 189 183 178 179 178 187 184 184 167 153 180 209 217 220 224 213 223 213 204 182
18 247 255 252 252 200 241 113 114 30 230 183 237 256 269 124 156 231 218 202 202 211 215 197 177 179 177 178 187 187 200 183 189 190 189 177 166 223 228 264 277 211 194 192
175 226 326 274 302 321 247 157 194 166 240 353 10 289 322 104 159 202 218 207 201 210 206 196 174 181 181 183 187 193 199 192 193 189 127 95 99 45 289 271 319 30 155 175
231 278 237 321 285 172 299 183 171 156 152 207 84 284 306 295 283 244 217 211 207 201 196 193 180 182 184 194 194 195 192 196 197 173 179 181 181 174 211 212 174 105 157 142
239 267 302 271 222 169 258 152 148 154 103 82 16 91 269 29 277 249 238 219 214 208 196 195 192 191 194 189 195 198 185 195 190 187 193 193 183 158 127 74 139 133 95 91
235 267 210 231 256 176 147 69 45 54 72 339 241 171 264 221 216 258 238 219 208 206 194 197 197 172 192 196 195 200 185 199 187 185 190 188 175 147 160 159 156 146 113 90
324 270 244 207 296 111 74 82 18 323 17 225 267 265 242 226 232 232 218 220 192 173 196 185 184 188 181 193 196 200 200 205 191 189 185 169 157 161 180 166 164 150 144 148
167 322 200 166 173 217 177 163 160 202 194 256 209 246 261 188 221 252 204 201 183 202 214 202 195 192 185 191 198 199 201 214 184 179 164 146 157 163 177 165 156 157 146 139
158 269 285 221 175 150 212 214 184 106 18 57 262 290 296 297 190 230 168 172 190 191 208 220 199 192 184 187 193 194 206 206 180 170 148 150 147 147 167 151 139 151 139 127
219 309 229 277 138 288 151 179 76 8 128 230 279 278 240 287 272 177 202 208 220 187 193 209 194 183 194 194 188 175 193 198 173 160 155 152 147 156 150 142 143 143 135 118
136 129 265 14 208 223 339 266 54 122 126 155 172 264 221 240 236 255 253 224 291 297 265 202 194 182 186 170 167 176 163 159 160 155 148 144 149 151 141 143 150 145 135 148
198 160 222 223 263 288 190 8 132 133 246 255 147 265 255 256 239 221 254 271 255 256 274 251 177 163 174 175 169 168 162 165 164 151 142 146 142 141 140 147 149 144 134 135
183 224 280 325 350 357 92 174 141 137 88 203 138 257 273 292 276 232 225 194 225 261 269 185 163 172 166 170 166 163 162 162 154 144 146 145 145 147 151 153 149 135 127 131
105 132 162 200 194 165 21 332 104 107 107 183 221 269 274 249 235 240 237 237 175 194 205 223 171 175 158 166 165 160 160 158 154 150 151 154 159 156 156 149 136 135 133 126
87 74 357 129 146 173 48 3 337 191 218 163 270 210 232 220 214 220 227 120 147 185 171 186 179 167 153 150 154 158 157 157 156 151 155 160 150 147 135 127 128 126 122 124
355 37 343 33 338 57 79 34 43 48 342 301 304 250 8 325 318 301 234 180 172 197 183 168 181 171 166 162 162 158 157 158 155 153 154 148 145 134 130 133 139 134 129 122
47 90 36 310 356 31 21 335 16 132 277 242 3 304 313 312 277 256 267 230 215 185 183 174 181 176 171 169 162 160 159 150 152 149 142 148 144 145 145 140 142 136 135 128
136 108 105 257 23 62 212 217 275 156 116 87 285 309 316 296 264 0 328 269 252 202 174 177 175 176 173 161 160 151 149 150 145 145 146 151 152 150 142 149 147 137 133 140
54 123 92 134 129 14 20 239 239 196 209 63 331 326 333 333 78 9 357 307 252 246 246 184 178 179 159 156 154 143 147 148 148 156 155 152 149 144 149 154 149 131 132 136
52 69 109 95 135 214 182 271 244 165 341 74 332 319 332 336 65 284 317 321 357 278 172 170 157 164 154 157 150 151 151 147 161 158 148 139 137 138 155 154 141 138 129 137
360 4 99 112 172 282 235 258 322 122 224 282 320 300 329 3 220 277 296 348 351 323 219 155 163 170 166 148 141 137 135 130 126 109 112 125 141 134 106 101 107 126 128 134
185 139 195 87 136 287 197 269 166 210 187 241 241 221 294 277 300 285 355 6 10 352 28 140 150 166 149 149 144 150 147 147 145 145 151 145 151 143 141 129 115 131 142 148
277 183 198 178 221 227 271 265 250 166 190 223 244 203 179 279 300 301 36 14 8 4 5 97 149 119 134 151 148 148 151 148 132 131 139 147 159 156 158 143 137 130 157 150
256 161 213 6 292 249 242 260 248 252 239 245 247 250 212 168 239 275 30 57 47 7 67 85 90 96 128 121 144 156 153 142 141 151 166 159 142 149 91 75 97 134 196 177
211 118 184 270 284 290 269 228 242 235 262 264 284 267 256 155 180 220 229 94 76 296 341 97 102 108 106 91 51 340 186 146 152 153 146 139 121 136 145 134 148 157 201 169
185 189 169 222 228 204 259 263 208 219 231 239 241 280 278 287 337 139 174 155 146 162 70 86 124 141 158 157 163 182 194 176 157 154 147 140 144 155 140 135 103 49 127 155